Lebanon, NH

11:45 AM EDT on April 30, 2017 (GMT -0400)
Lebanon Municipal

Weather History for KLEB - November, 2012

Change the Weather History Date:

Friday, November 2, 2012

  Actual Average Record
Temperature  
Mean Temperature 44 °F -  
Max Temperature 48 °F 53 °F 79 °F (1950)
Min Temperature 39 °F 35 °F 16 °F (2002)
Degree Days  
Heating Degree Days 22    
Moisture  
Dew Point 34 °F    
Average Humidity 65    
Maximum Humidity 86    
Minimum Humidity 52    
Precipitation  
Precipitation 0.00 in - - ()
Sea Level Pressure  
Sea Level Pressure 29.56 in    
Wind  
Wind Speed 6 mph (WSW)    
Max Wind Speed 9 mph    
Max Gust Speed -    
Visibility 10 miles    
Events      
Averages and records for this station are not official NWS values.
T = Trace of Precipitation, MM = Missing Value Source: NWS Daily Summary

Daily Weather History Graph

Daily Weather History Graph

Search for Another Location

Airport or City:

Trip Planner

Search our weather history database for the weather conditions in past years. The results will help you decide how hot, cold, wet, or windy it might be!

Date:

Astronomy

Nov. 02, 2012 Rise Set
Actual Time 7:26 AM EDT 5:38 PM EDT
Civil Twilight 6:56 AM EDT 6:08 PM EDT
Nautical Twilight 6:22 AM EDT 6:41 PM EDT
Astronomical Twilight 5:49 AM EDT 7:15 PM EDT
Moon 8:18 PM EDT (11/2) 10:49 AM EDT (11/2)
Length of Visible Light 11h 11m
Length of Day
10h 11m
Waning Gibbous, 87% of the Moon is Illuminated
Nov 2
Waning Gibbous
Nov 6
Last Quarter
Nov 13
New
Nov 20
First Quarter
Nov 28
Full

Hourly Weather History & Observations

Time (EDT) Temp. Windchill Dew Point Humidity Pressure Visibility Wind Dir Wind Speed Gust Speed Precip Events Conditions
12:53 AM 46.0 °F 41.9 °F 37.9 °F 73% 29.51 in 10.0 mi SSW 8.1 mph - N/A   Overcast
1:53 AM 45.0 °F 41.8 °F 37.9 °F 76% 29.51 in 10.0 mi South 5.8 mph - N/A   Overcast
2:53 AM 45.0 °F 42.6 °F 37.9 °F 76% 29.51 in 10.0 mi South 4.6 mph - N/A   Overcast
3:53 AM 43.0 °F 40.3 °F 37.0 °F 80% 29.51 in 10.0 mi South 4.6 mph - N/A   Overcast
4:53 AM 42.1 °F 39.2 °F 37.0 °F 82% 29.52 in 10.0 mi South 4.6 mph - N/A   Overcast
5:53 AM 41.0 °F 39.0 °F 37.0 °F 86% 29.52 in 10.0 mi South 3.5 mph - N/A   Overcast
6:53 AM 39.9 °F 35.8 °F 36.0 °F 86% 29.52 in 10.0 mi South 5.8 mph - N/A   Mostly Cloudy
7:53 AM 42.1 °F - 37.0 °F 82% 29.54 in 10.0 mi Calm Calm - N/A   Overcast
8:53 AM 45.0 °F 43.5 °F 37.0 °F 74% 29.55 in 10.0 mi South 3.5 mph - N/A   Overcast
9:53 AM 46.9 °F - 36.0 °F 66% 29.55 in 10.0 mi SSW 6.9 mph - N/A   Mostly Cloudy
10:12 AM 46.4 °F 41.9 °F 35.6 °F 66% 29.54 in 10.0 mi SW 9.2 mph - N/A   Overcast
10:44 AM 48.2 °F - 33.8 °F 58% 29.54 in 10.0 mi West 4.6 mph - N/A   Overcast
10:53 AM 48.0 °F - 34.0 °F 58% 29.55 in 10.0 mi West 5.8 mph - N/A   Overcast
11:53 AM 48.9 °F - 32.0 °F 52% 29.54 in 10.0 mi West 9.2 mph - N/A   Overcast
12:53 PM 48.0 °F - 33.1 °F 56% 29.54 in 10.0 mi SW 5.8 mph - N/A   Overcast
1:53 PM 48.0 °F - 33.1 °F 56% 29.53 in 10.0 mi NNW 8.1 mph - N/A   Overcast
2:53 PM 48.9 °F - 32.0 °F 52% 29.53 in 10.0 mi West 8.1 mph - N/A   Overcast
3:53 PM 48.0 °F - 30.9 °F 52% 29.55 in 10.0 mi West 8.1 mph - N/A   Overcast
4:53 PM 46.9 °F - 30.9 °F 54% 29.56 in 10.0 mi WNW 6.9 mph - N/A   Overcast
5:53 PM 46.0 °F 43.1 °F 30.9 °F 56% 29.57 in 10.0 mi WNW 5.8 mph - N/A   Overcast
6:53 PM 45.0 °F 41.8 °F 30.9 °F 58% 29.60 in 10.0 mi WNW 5.8 mph - N/A   Overcast
7:53 PM 45.0 °F 43.5 °F 32.0 °F 60% 29.61 in 10.0 mi WNW 3.5 mph - N/A   Overcast
8:53 PM 45.0 °F - 32.0 °F 60% 29.62 in 10.0 mi Calm Calm - N/A   Overcast
9:53 PM 45.0 °F - 32.0 °F 60% 29.63 in 10.0 mi Calm Calm - N/A   Overcast
10:53 PM 44.1 °F 42.5 °F 32.0 °F 63% 29.64 in 10.0 mi NNW 3.5 mph - N/A   Overcast
11:11 PM 44.6 °F 43.1 °F 32.0 °F 61% 29.63 in 10.0 mi North 3.5 mph - N/A   Overcast
11:53 PM 44.1 °F 41.5 °F 33.1 °F 65% 29.64 in 10.0 mi NW 4.6 mph - N/A   Overcast